Regional Weather Roundup
Issued by NWS

Home | Current Version | Previous Version | Text Only | Print | Product List | Glossary Off
Versions: 1 2 3 4 5 6 7 8 9 10 11 12 13 14 15 16 17 18 19 20 21 22 23 24 25 26 27 28 29 30 31 32 33 34 35 36 37 38 39 40 41 42 43 44 45 46 47 48 49 50

000
ASUS43 KFSD 031202
RWRSD

WEATHER ROUNDUP FOR SOUTH DAKOTA
NATIONAL WEATHER SERVICE SIOUX FALLS SD
700 AM CDT THU SEP 03 2015

NOTE: "FAIR" INDICATES FEW OR NO CLOUDS BELOW 12,000 FEET WITH NO
SIGNIFICANT WEATHER AND/OR OBSTRUCTIONS TO VISIBILITY.


SDZ001>005-009-010-012>017-031300-
NORTHWEST AND NORTH CENTRAL SOUTH DAKOTA

CITY           SKY/WX    TMP DP  RH WIND       PRES   REMARKS
BUFFALO          N/A     62  53  72 E7        29.67R
MOBRIDGE       CLEAR     69  64  84 SE10      29.69R
$$

SDZ012>016-024>037-041>051-057-063-072>074-031300-
SOUTHWEST AND SOUTH CENTRAL SOUTH DAKOTA

CITY           SKY/WX    TMP DP  RH WIND       PRES   REMARKS
RAPID CTY ARPT CLEAR     61  47  59 SE3       29.79S
PIERRE         CLEAR     65  60  84 CALM      29.72S
CUSTER         PTCLDY    58  38  47 NW3       29.98S
ELLSWORTH AFB  CLEAR     65  47  51 S6        29.78S
PHILIP         CLEAR     67  55  65 VRB3      29.75R
PINE RIDGE     PTCLDY    70  53  54 S8        29.84S
WINNER         FAIR      74  60  61 S10       29.77R
$$

SDZ004>011-016>023-039-040-031300-
NORTHEAST SOUTH DAKOTA

CITY           SKY/WX    TMP DP  RH WIND       PRES   REMARKS
ABERDEEN       CLEAR     70  68  93 S10       29.75R
WATERTOWN      CLEAR     69  67  93 SE12      29.82R FOG
BROOKINGS      CLEAR     68  64  88 SE6       29.85S
$$

SDZ017-020-022-023-036>040-048>070-031300-
SOUTHEAST SOUTH DAKOTA

CITY           SKY/WX    TMP DP  RH WIND       PRES   REMARKS
SIOUX FALLS    CLEAR     68  66  93 E6        29.83R
HURON          CLEAR     69  67  93 SE8       29.76S
CHAMBERLAIN    CLEAR     64  63  97 E5        29.77R
MITCHELL       CLEAR     69  67  93 SE9       29.78R
YANKTON        CLEAR     64  64 100 E6        29.80S
$$

ABBREVIATIONS USED IN REMARKS
   TC - TEMPERATURE IN CELSIUS
  WCI - WIND CHILL INDEX
   HX - HEAT INDEX
  VSB - VISIBILITY




USA.gov is the U.S. government's official web portal to all federal, state and local government web resources and services.